Location: Anaheim Mobile Home Estates
(33.8153°N, 117.9967°W)
Time: 06:11:29
(UTC+00:00)

Cosmos 1943 Rocket - Pass Details

Date: 05 August 2024
Orbit: 813 x 841 km, 71.0° (Epoch: 14 September)

Event Time Altitude Azimuth Distance (km) Brightness Sun altitude
Rises 12:21:47 0° 339° (NNW) 3,345 5.4 -9.4°
Reaches altitude 10° 12:24:13 10° 339° (NNW) 2,407 4.7 -9.0°
Maximum altitude 12:29:43 90° 15° (NNE) 817 2.2 -8.0°
Drops below altitude 10° 12:35:12 10° 161° (SSE) 2,391 4.5 -6.9°
Sets 12:37:37 0° 161° (SSE) 3,321 5.2 -6.5°
